Weather Roundup
Issued by NWS Chicago, IL

Home | Current Version | Previous Version | Graphics & Text | Print | Product List | Glossary On
Versions: 1 2 3 4 5 6 7 8 9 10 11 12 13 14 15 16 17 18 19 20 21 22 23 24 25 26 27 28 29 30 31 32 33 34 35 36 37 38 39 40 41 42 43 44 45 46 47 48 49 50
898
NZUS59 KLOT 271403
HRRLOT

CHICAGO AREA WEATHER ROUNDUP
NATIONAL WEATHER SERVICE CHICAGO/ROMEOVILLE IL
800 AM CST MON FEB 27 2017

NOTE: "FAIR" INDICATES FEW OR NO CLOUDS BELOW 12,000 FEET WITH NO
SIGNIFICANT WEATHER AND/OR OBSTRUCTIONS TO VISIBILITY.

* THESE STATIONS ARE NOT UNDER NWS QUALITY CONTROL. THEY ALSO MAY NOT
  REPORT WEATHER SUCH AS PRECIPITATION OR FOG.

ILZ005-006-012>014-019>023-271500-
NORTHEAST ILLINOIS

CITY           SKY/WX    TMP DP  RH WIND       PRES   REMARKS
OHARE          MOSUNNY   35  28  75 CALM      30.15R
MIDWAY         MOSUNNY   36  28  73 S5        30.16R
AURORA         SUNNY     34  29  82 S5        30.15R WCI  30
LANSING*       SUNNY     33  30  90 S3        30.18R
JOLIET*        SUNNY     36  32  87 S6        30.16S
WAUKEGAN       SUNNY     33  31  92 CALM      30.14R
DUPAGE AIRPORT SUNNY     32  28  85 CALM      30.14R
WHEELING       SUNNY     32  27  81 SE3       30.16R
KANKAKEE*      SUNNY     34  29  84 S9        30.18R WCI  26
MORRIS*        SUNNY     32  30  90 CALM      30.16R
LEWIS AIRPORT* SUNNY     33  32  95 CALM      30.15S
NORTHERLY ISL    N/A     37  28  70 S2          N/A
$$

WIZ051-052-058>065-066-070>072-271500-
SOUTHEAST WISCONSIN

CITY           SKY/WX    TMP DP  RH WIND       PRES   REMARKS
MILWAUKEE      MOSUNNY   32  25  75 CALM      30.14R
KENOSHA*       SUNNY     32  30  92 CALM      30.14R
RACINE*        SUNNY     32  28  85 CALM      30.16R
WAUKESHA       SUNNY     27  25  93 CALM      30.14R
WEST BEND      SUNNY     28  28 100 CALM      30.12R
$$

INZ001>003-010>013-019-020-271500-
NORTHWEST INDIANA

CITY           SKY/WX    TMP DP  RH WIND       PRES   REMARKS
GARY*          MOSUNNY   36  28  75 CALM      30.17R
MICHIGAN CITY* NOT AVBL
RENSSELAER*    NOT AVBL
VALPARAISO     MOSUNNY   34  28  79 S6        30.18R WCI  29
$$

LMZ740>746-271500-
SOUTHERN LAKE MICHIGAN

STATION/POSITION TIME  SKY/WX   TEMP WIND        PRES    VSBY
                                AIR  DIR/SP/G
                 (UTC)          (F)  (DEG/KT/KT) (MB)    (MI)
HARRISON CRIB    1340            37  190/  7/  8   N/A
BURNHAM HARBOR   1400            38  230/  3/  7   N/A
CALUMET HARBOR   1330            35  180/  3/  4 1020.7R
BURNS HARBOR     1340            34  190/  7/ 10 1022.0R
MICHIGAN CITY    1340            35  160/  6/  7   N/A
$$

ABBREVIATIONS USED IN REMARKS
   TC - TEMPERATURE IN CELSIUS
  WCI - WIND CHILL INDEX
   HX - HEAT INDEX
  VSB - VISIBILITY
$$




USA.gov is the U.S. government's official web portal to all federal, state and local government web resources and services.